Time,TemperatureF,DewpointF,PressureIn,WindDirection,WindDirectionDegrees,WindSpeedMPH,WindSpeedGustMPH,Humidity,HourlyPrecipIn,Conditions,Clouds,dailyrainin,SoftwareType,DateUTC
2013-03-26 00:13:00,44.9,-99.9,30.00,NE,49,2.0,-999.0,0,-99.99,,,0.07,weatherlink.com 1.10,2013-03-26 07:13:00,
2013-03-26 00:28:00,44.4,-99.9,30.00,NE,49,2.0,-999.0,0,-99.99,,,0.00,weatherlink.com 1.10,2013-03-26 07:28:00,
2013-03-26 00:43:00,44.2,-99.9,29.99,ENE,63,3.0,-999.0,0,-99.99,,,0.00,weatherlink.com 1.10,2013-03-26 07:43:00,
2013-03-26 00:58:00,44.1,-99.9,30.00,NE,48,0.0,-999.0,0,-99.99,,,0.00,weatherlink.com 1.10,2013-03-26 07:58:00,
2013-03-26 01:13:00,43.6,-99.9,30.00,NE,48,2.0,-999.0,0,-99.99,,,0.00,weatherlink.com 1.10,2013-03-26 08:13:00,
2013-03-26 01:28:00,43.6,-99.9,30.00,ENE,59,4.0,-999.0,0,-99.99,,,0.00,weatherlink.com 1.10,2013-03-26 08:28:00,
2013-03-26 01:43:00,43.2,-99.9,30.00,ENE,57,2.0,-999.0,0,-99.99,,,0.00,weatherlink.com 1.10,2013-03-26 08:43:00,
2013-03-26 01:58:00,42.5,-99.9,30.00,ENE,57,4.0,-999.0,0,-99.99,,,0.00,weatherlink.com 1.10,2013-03-26 08:58:00,
2013-03-26 02:13:00,42.5,-99.9,29.99,ENE,61,6.0,-999.0,0,-99.99,,,0.00,weatherlink.com 1.10,2013-03-26 09:13:00,
2013-03-26 02:28:00,42.0,-99.9,29.99,ENE,59,6.0,-999.0,0,-99.99,,,0.00,weatherlink.com 1.10,2013-03-26 09:28:00,
2013-03-26 02:43:00,42.0,-99.9,29.99,NE,46,0.0,-999.0,0,-99.99,,,0.00,weatherlink.com 1.10,2013-03-26 09:43:00,
2013-03-26 02:58:00,42.5,-99.9,29.99,NE,46,1.0,-999.0,0,-99.99,,,0.00,weatherlink.com 1.10,2013-03-26 09:58:00,
2013-03-26 03:13:00,42.9,-99.9,29.98,ENE,57,2.0,-999.0,0,-99.99,,,0.00,weatherlink.com 1.10,2013-03-26 10:13:00,
2013-03-26 03:28:00,41.9,-99.9,29.97,NE,53,5.0,-999.0,0,-99.99,,,0.00,weatherlink.com 1.10,2013-03-26 10:28:00,
2013-03-26 03:43:00,41.6,-99.9,29.97,NE,46,5.0,-999.0,0,-99.99,,,0.00,weatherlink.com 1.10,2013-03-26 10:43:00,
2013-03-26 03:58:00,41.7,-99.9,29.97,ENE,67,5.0,-999.0,0,-99.99,,,0.00,weatherlink.com 1.10,2013-03-26 10:58:00,
2013-03-26 04:13:00,41.6,-99.9,29.97,ENE,65,5.0,-999.0,0,-99.99,,,0.00,weatherlink.com 1.10,2013-03-26 11:13:00,
2013-03-26 04:28:00,41.2,-99.9,29.97,ENE,59,4.0,-999.0,0,-99.99,,,0.00,weatherlink.com 1.10,2013-03-26 11:28:00,
2013-03-26 04:43:00,41.9,-99.9,29.96,ENE,63,6.0,-999.0,0,-99.99,,,0.00,weatherlink.com 1.10,2013-03-26 11:43:00,
2013-03-26 04:58:00,41.8,-99.9,29.96,NE,52,4.0,-999.0,0,-99.99,,,0.00,weatherlink.com 1.10,2013-03-26 11:58:00,
2013-03-26 05:13:00,42.4,-99.9,29.97,NE,53,3.0,-999.0,0,-99.99,,,0.00,weatherlink.com 1.10,2013-03-26 12:13:00,
2013-03-26 05:28:00,42.5,-99.9,29.97,ENE,57,4.0,-999.0,0,-99.99,,,0.00,weatherlink.com 1.10,2013-03-26 12:28:00,
2013-03-26 05:43:00,42.7,-99.9,29.98,ENE,57,4.0,-999.0,0,-99.99,,,0.00,weatherlink.com 1.10,2013-03-26 12:43:00,
2013-03-26 05:58:00,42.8,-99.9,29.97,NE,55,4.0,-999.0,0,-99.99,,,0.00,weatherlink.com 1.10,2013-03-26 12:58:00,
2013-03-26 06:13:00,42.8,-99.9,29.98,NE,53,4.0,-999.0,0,-99.99,,,0.00,weatherlink.com 1.10,2013-03-26 13:13:00,
2013-03-26 06:28:00,42.8,-99.9,29.98,NE,42,4.0,-999.0,0,-99.99,,,0.00,weatherlink.com 1.10,2013-03-26 13:28:00,
2013-03-26 06:43:00,42.8,-99.9,29.98,NE,53,4.0,-999.0,0,-99.99,,,0.00,weatherlink.com 1.10,2013-03-26 13:43:00,
2013-03-26 06:58:00,42.5,-99.9,29.98,ENE,59,6.0,-999.0,0,-99.99,,,0.00,weatherlink.com 1.10,2013-03-26 13:58:00,
2013-03-26 07:13:00,41.8,-99.9,29.98,NE,49,6.0,-999.0,0,-99.99,,,0.00,weatherlink.com 1.10,2013-03-26 14:13:00,
2013-03-26 07:28:00,41.6,-99.9,29.98,ENE,61,5.0,-999.0,0,-99.99,,,0.00,weatherlink.com 1.10,2013-03-26 14:28:00,
2013-03-26 07:43:00,42.2,-99.9,29.98,ENE,69,6.0,-999.0,0,-99.99,,,0.00,weatherlink.com 1.10,2013-03-26 14:43:00,
2013-03-26 07:58:00,42.8,-99.9,29.98,NE,34,3.0,-999.0,0,-99.99,,,0.00,weatherlink.com 1.10,2013-03-26 14:58:00,
2013-03-26 08:13:00,43.5,-99.9,29.98,ENE,61,4.0,-999.0,0,-99.99,,,0.00,weatherlink.com 1.10,2013-03-26 15:13:00,
2013-03-26 08:28:00,43.7,-99.9,29.98,ENE,57,5.0,-999.0,0,-99.99,,,0.00,weatherlink.com 1.10,2013-03-26 15:28:00,
2013-03-26 08:43:00,43.8,-99.9,29.99,NE,56,5.0,-999.0,0,-99.99,,,0.00,weatherlink.com 1.10,2013-03-26 15:43:00,
2013-03-26 08:58:00,44.6,-99.9,29.99,ENE,62,5.0,-999.0,0,-99.99,,,0.00,weatherlink.com 1.10,2013-03-26 15:58:00,
2013-03-26 09:13:00,45.6,-99.9,29.99,NE,40,3.0,-999.0,0,-99.99,,,0.00,weatherlink.com 1.10,2013-03-26 16:13:00,
2013-03-26 09:28:00,46.8,-99.9,29.99,NE,55,2.0,-999.0,0,-99.99,,,0.00,weatherlink.com 1.10,2013-03-26 16:28:00,
2013-03-26 09:43:00,48.6,-99.9,29.99,NE,55,0.0,-999.0,0,-99.99,,,0.00,weatherlink.com 1.10,2013-03-26 16:43:00,
2013-03-26 09:58:00,49.2,-99.9,29.99,NE,55,2.0,-999.0,0,-99.99,,,0.00,weatherlink.com 1.10,2013-03-26 16:58:00,
2013-03-26 10:13:00,52.2,-99.9,30.00,WSW,241,0.0,-999.0,0,-99.99,,,0.00,weatherlink.com 1.10,2013-03-26 17:13:00,
2013-03-26 10:28:00,54.6,-99.9,29.99,West,274,0.0,-999.0,0,-99.99,,,0.00,weatherlink.com 1.10,2013-03-26 17:28:00,
2013-03-26 10:43:00,56.0,-99.9,29.99,WSW,249,0.0,-999.0,0,-99.99,,,0.00,weatherlink.com 1.10,2013-03-26 17:43:00,
2013-03-26 10:58:00,56.7,-99.9,30.00,West,259,2.0,-999.0,0,-99.99,,,0.00,weatherlink.com 1.10,2013-03-26 17:58:00,
2013-03-26 11:13:00,57.8,-99.9,30.00,SSW,212,0.0,-999.0,0,-99.99,,,0.00,weatherlink.com 1.10,2013-03-26 18:13:00,
2013-03-26 11:28:00,58.6,-43.0,29.99,West,277,5.0,-999.0,1,-99.99,,,0.00,weatherlink.com 1.10,2013-03-26 18:28:00,
2013-03-26 11:43:00,58.1,-9.0,30.00,SW,229,5.0,-999.0,6,-99.99,,,0.00,weatherlink.com 1.10,2013-03-26 18:43:00,
2013-03-26 11:58:00,57.8,-1.0,30.00,SW,232,4.0,-999.0,9,-99.99,,,0.00,weatherlink.com 1.10,2013-03-26 18:58:00,
2013-03-26 12:13:00,58.2,-43.0,30.00,West,266,5.0,-999.0,1,-99.99,,,0.00,weatherlink.com 1.10,2013-03-26 19:13:00,
2013-03-26 12:28:00,57.0,-18.0,30.01,WSW,252,3.0,-999.0,4,-99.99,,,0.00,weatherlink.com 1.10,2013-03-26 19:28:00,
2013-03-26 12:43:00,56.0,-99.9,30.01,WSW,247,6.0,-999.0,0,-99.99,,,0.00,weatherlink.com 1.10,2013-03-26 19:43:00,
2013-03-26 12:58:00,57.1,-99.9,30.01,West,281,4.0,-999.0,0,-99.99,,,0.00,weatherlink.com 1.10,2013-03-26 19:58:00,
2013-03-26 13:13:00,58.9,-99.9,30.01,West,279,2.0,-999.0,-999,-99.99,,,0.00,weatherlink.com 1.10,2013-03-26 20:13:00,
2013-03-26 13:28:00,59.5,13.0,30.00,WSW,239,4.0,-999.0,16,-99.99,,,0.00,weatherlink.com 1.10,2013-03-26 20:28:00,
2013-03-26 13:43:00,59.4,10.0,30.00,WSW,257,2.0,-999.0,14,-99.99,,,0.00,weatherlink.com 1.10,2013-03-26 20:43:00,
2013-03-26 13:58:00,59.6,17.0,30.00,SW,219,3.0,-999.0,19,-99.99,,,0.00,weatherlink.com 1.10,2013-03-26 20:58:00,
2013-03-26 14:13:00,59.6,8.0,29.99,West,264,6.0,-999.0,13,-99.99,,,0.00,weatherlink.com 1.10,2013-03-26 21:13:00,
2013-03-26 14:28:00,59.1,14.0,29.99,WNW,294,4.0,-999.0,17,-99.99,,,0.00,weatherlink.com 1.10,2013-03-26 21:28:00,
2013-03-26 14:43:00,59.4,12.0,29.99,West,276,6.0,-999.0,15,-99.99,,,0.00,weatherlink.com 1.10,2013-03-26 21:43:00,
2013-03-26 14:58:00,59.1,24.0,29.98,SW,233,4.0,-999.0,26,-99.99,,,0.00,weatherlink.com 1.10,2013-03-26 21:58:00,
2013-03-26 15:13:00,58.7,2.0,29.99,SW,217,5.0,-999.0,10,-99.99,,,0.00,weatherlink.com 1.10,2013-03-26 22:13:00,
2013-03-26 15:28:00,59.2,18.0,29.98,SW,225,4.0,-999.0,20,-99.99,,,0.00,weatherlink.com 1.10,2013-03-26 22:28:00,
2013-03-26 15:43:00,58.9,11.0,29.98,WSW,250,3.0,-999.0,15,-99.99,,,0.00,weatherlink.com 1.10,2013-03-26 22:43:00,
2013-03-26 15:58:00,58.7,22.0,29.97,WNW,288,4.0,-999.0,24,-99.99,,,0.00,weatherlink.com 1.10,2013-03-26 22:58:00,
2013-03-26 16:13:00,59.4,26.0,29.98,SW,225,3.0,-999.0,28,-99.99,,,0.00,weatherlink.com 1.10,2013-03-26 23:13:00,
2013-03-26 16:28:00,58.9,14.0,29.98,WSW,239,5.0,-999.0,17,-99.99,,,0.00,weatherlink.com 1.10,2013-03-26 23:28:00,
2013-03-26 16:43:00,58.3,-17.0,29.97,West,275,2.0,-999.0,4,-99.99,,,0.00,weatherlink.com 1.10,2013-03-26 23:43:00,
2013-03-26 16:58:00,58.2,-99.9,29.97,SW,236,4.0,-999.0,0,-99.99,,,0.00,weatherlink.com 1.10,2013-03-26 23:58:00,
2013-03-26 17:13:00,57.7,-99.9,29.96,SSW,213,3.0,-999.0,0,-99.99,,,0.00,weatherlink.com 1.10,2013-03-27 00:13:00,
2013-03-26 17:28:00,57.8,-99.9,29.96,SW,217,2.0,-999.0,0,-99.99,,,0.00,weatherlink.com 1.10,2013-03-27 00:28:00,
2013-03-26 17:43:00,57.0,-99.9,29.96,WSW,254,0.0,-999.0,0,-99.99,,,0.00,weatherlink.com 1.10,2013-03-27 00:43:00,
2013-03-26 17:58:00,56.8,-99.9,29.96,WSW,243,2.0,-999.0,0,-99.99,,,0.00,weatherlink.com 1.10,2013-03-27 00:58:00,
2013-03-26 18:13:00,56.3,-99.9,29.95,SW,222,0.0,-999.0,0,-99.99,,,0.00,weatherlink.com 1.10,2013-03-27 01:13:00,
2013-03-26 18:28:00,55.6,-99.9,29.95,SW,236,2.0,-999.0,0,-99.99,,,0.00,weatherlink.com 1.10,2013-03-27 01:28:00,
2013-03-26 18:43:00,55.2,-99.9,29.96,WNW,287,0.0,-999.0,0,-99.99,,,0.00,weatherlink.com 1.10,2013-03-27 01:43:00,
2013-03-26 18:58:00,54.9,-99.9,29.96,West,263,2.0,-999.0,0,-99.99,,,0.00,weatherlink.com 1.10,2013-03-27 01:58:00,
2013-03-26 19:13:00,54.5,-99.9,29.96,West,268,0.0,-999.0,0,-99.99,,,0.00,weatherlink.com 1.10,2013-03-27 02:13:00,
2013-03-26 19:28:00,53.7,-99.9,29.96,West,268,0.0,-999.0,0,-99.99,,,0.00,weatherlink.com 1.10,2013-03-27 02:28:00,
2013-03-26 19:43:00,52.2,-99.9,29.96,NNE,25,0.0,-999.0,0,-99.99,,,0.00,weatherlink.com 1.10,2013-03-27 02:43:00,
2013-03-26 19:58:00,50.9,-99.9,29.96,NNE,26,0.0,-999.0,0,-99.99,,,0.00,weatherlink.com 1.10,2013-03-27 02:58:00,
2013-03-26 20:13:00,50.4,-99.9,29.96,NE,49,3.0,-999.0,0,-99.99,,,0.00,weatherlink.com 1.10,2013-03-27 03:13:00,
2013-03-26 20:28:00,49.9,-99.9,29.96,NE,56,4.0,-999.0,0,-99.99,,,0.00,weatherlink.com 1.10,2013-03-27 03:28:00,
2013-03-26 20:43:00,49.8,-99.9,29.97,NE,54,3.0,-999.0,0,-99.99,,,0.00,weatherlink.com 1.10,2013-03-27 03:43:00,
2013-03-26 20:58:00,50.0,-99.9,29.97,NE,54,3.0,-999.0,0,-99.99,,,0.00,weatherlink.com 1.10,2013-03-27 03:58:00,
2013-03-26 21:13:00,50.1,-99.9,29.97,NE,51,5.0,-999.0,0,-99.99,,,0.00,weatherlink.com 1.10,2013-03-27 04:13:00,
2013-03-26 21:28:00,49.7,-99.9,29.97,NE,53,2.0,-999.0,0,-99.99,,,0.00,weatherlink.com 1.10,2013-03-27 04:28:00,
2013-03-26 21:43:00,49.6,-99.9,29.97,ENE,59,4.0,-999.0,0,-99.99,,,0.00,weatherlink.com 1.10,2013-03-27 04:43:00,
2013-03-26 21:58:00,49.9,-99.9,29.97,ENE,62,6.0,-999.0,0,-99.99,,,0.00,weatherlink.com 1.10,2013-03-27 04:58:00,
2013-03-26 22:13:00,50.2,-99.9,29.97,ENE,61,3.0,-999.0,0,-99.99,,,0.00,weatherlink.com 1.10,2013-03-27 05:13:00,
2013-03-26 22:28:00,50.2,-99.9,29.97,NE,47,3.0,-999.0,0,-99.99,,,0.00,weatherlink.com 1.10,2013-03-27 05:28:00,
2013-03-26 22:43:00,50.1,-99.9,29.97,NE,44,5.0,-999.0,0,-99.99,,,0.00,weatherlink.com 1.10,2013-03-27 05:43:00,
2013-03-26 22:58:00,49.7,-99.9,29.97,ENE,73,1.0,-999.0,0,-99.99,,,0.00,weatherlink.com 1.10,2013-03-27 05:58:00,
2013-03-26 23:13:00,49.6,-99.9,29.97,NE,39,6.0,-999.0,0,-99.99,,,0.00,weatherlink.com 1.10,2013-03-27 06:13:00,
2013-03-26 23:28:00,49.6,-99.9,29.97,ENE,62,4.0,-999.0,0,-99.99,,,0.00,weatherlink.com 1.10,2013-03-27 06:28:00,
2013-03-26 23:43:00,49.4,-99.9,29.96,ENE,59,3.0,-999.0,0,-99.99,,,0.00,weatherlink.com 1.10,2013-03-27 06:43:00,
2013-03-26 23:58:00,49.2,-99.9,29.97,NE,51,3.0,-999.0,0,-99.99,,,0.00,weatherlink.com 1.10,2013-03-27 06:58:00,